Find Starlink 6214

NORAD ID: 56480 Int'l Des: 2023-064 Owner: SPXS Country: US Constellation: starlink operational
LEOCIRCULAR

Current View

Loading 3D Globe...

About Starlink 6214

Description loading...

Upcoming Passes

Passes for default location (London). Set your location on the main map for personalized predictions.

Altitude History

Loading altitude history...

Two-Line Element Set

1 56480U 23064AJ 26150.20153647 .00020723 00000-0 58534-3 0 9992
2 56480 69.9921 237.5900 0003499 286.1530 73.9263 15.36339462168981
Epoch: May 30, 2026 • Age: 5 hours

Current Status

Altitude 459.0 km
Velocity 7.64 km/s
Sub-Earth Point 18.75°N, 147.96°W
Launch Date May 10, 2023
Age 3 years
Type internet

Technical Details

Classification Payload
Mass 305.00 kg
Dry Mass 290.00 kg
Total Mass 305.00 kg
Length 0.20 m
Diameter 2.80 m
Span 9.00 m
Shape Box + pan
Manufacturer SPXS
Bus Type Starlink
Phase Status In Orbit
Owner/State SPXS/US

Most Searched